QPF
0.02 0.02 0.02 0.02 0.04 0.05 0.08 0.11 0.12 0.14 0.19 0.24 0.26 0.26 0.27 0.33 0.38 0.42 0.39 0.33 0.26 0.22 0.20 0.17 0.14 0.09 0.04 0.03 0.02 0.01 0.01 0.01 0.01 0.01 0.00 0.00 0.00 0.00 0.00 0.00 0.00 0.00 0.00
0.02 0.01 0.01 0.01 0.01 0.01 0.02 0.04 0.05 0.07 0.11 0.15 0.18 0.20 0.30 0.38 0.43 0.45 0.43 0.39 0.35 0.32 0.28 0.27 0.24 0.17 0.10 0.07 0.06 0.04 0.03 0.02 0.02 0.02 0.01 0.01 0.01 0.01 0.01 0.00 0.00 0.01 0.01
0.02 0.01 0.01 0.01 0.01 0.01 0.01 0.01 0.02 0.03 0.05 0.06 0.09 0.15 0.23 0.30 0.36 0.35 0.37 0.42 0.44 0.42 0.40 0.40 0.38 0.30 0.21 0.14 0.11 0.08 0.06 0.04 0.04 0.03 0.03 0.02 0.01 0.01 0.00 0.00 0.00 0.00 0.01
0.02 0.01 0.01 0.01 0.01 0.01 0.01 0.00 0.00 0.01 0.02 0.03 0.05 0.08 0.13 0.17 0.22 0.29 0.38 0.43 0.47 0.46 0.45 0.47 0.46 0.43 0.36 0.27 0.19 0.15 0.12 0.09 0.08 0.07 0.07 0.04 0.02 0.02 0.01 0.00 0.00 0.00 0.00
0.02 0.02 0.02 0.02 0.02 0.02 0.01 0.01 0.00 0.00 0.00 0.01 0.02 0.03 0.07 0.10 0.17 0.29 0.35 0.38 0.39 0.45 0.49 0.46 0.45 0.43 0.41 0.35 0.29 0.24 0.19 0.16 0.14 0.12 0.12 0.11 0.08 0.05 0.03 0.01 0.01 0.00 0.00
0.05 0.04 0.02 0.04 0.04 0.02 0.01 0.01 0.01 0.00 0.00 0.01 0.02 0.02 0.04 0.05 0.10 0.16 0.21 0.26 0.30 0.38 0.46 0.50 0.46 0.38 0.33 0.29 0.26 0.24 0.22 0.20 0.17 0.15 0.13 0.12 0.12 0.11 0.10 0.06 0.04 0.03 0.01
0.06 0.03 0.04 0.06 0.05 0.04 0.02 0.02 0.01 0.00 0.01 0.01 0.01 0.02 0.02 0.03 0.04 0.05 0.09 0.13 0.18 0.24 0.30 0.37 0.41 0.39 0.35 0.31 0.29 0.27 0.25 0.23 0.21 0.19 0.17 0.15 0.13 0.11 0.11 0.09 0.08 0.06 0.04
0.06 0.05 0.06 0.09 0.10 0.09 0.06 0.05 0.03 0.01 0.01 0.01 0.01 0.02 0.02 0.02 0.02 0.03 0.05 0.07 0.12 0.18 0.24 0.28 0.31 0.32 0.33 0.31 0.29 0.27 0.24 0.21 0.19 0.17 0.14 0.12 0.11 0.11 0.11 0.10 0.09 0.06 0.04
0.07 0.08 0.11 0.14 0.17 0.18 0.11 0.07 0.05 0.03 0.02 0.02 0.02 0.02 0.03 0.02 0.02 0.02 0.03 0.04 0.06 0.09 0.14 0.18 0.22 0.23 0.22 0.24 0.25 0.23 0.19 0.17 0.15 0.14 0.13 0.12 0.11 0.12 0.12 0.11 0.10 0.08 0.05
0.10 0.13 0.17 0.19 0.23 0.23 0.19 0.12 0.08 0.07 0.04 0.04 0.03 0.03 0.03 0.02 0.02 0.02 0.02 0.03 0.04 0.05 0.09 0.11 0.14 0.17 0.17 0.16 0.17 0.18 0.16 0.14 0.12 0.11 0.10 0.09 0.09 0.09 0.08 0.07 0.06 0.05 0.04
0.12 0.16 0.22 0.25 0.23 0.22 0.19 0.15 0.11 0.10 0.07 0.05 0.04 0.03 0.03 0.03 0.02 0.02 0.02 0.02 0.03 0.05 0.08 0.10 0.11 0.13 0.19 0.22 0.21 0.19 0.18 0.15 0.13 0.12 0.10 0.08 0.08 0.07 0.07 0.06 0.05 0.04 0.03
0.08 0.12 0.19 0.18 0.22 0.24 0.19 0.17 0.16 0.13 0.10 0.06 0.05 0.05 0.03 0.03 0.03 0.02 0.03 0.02 0.03 0.04 0.06 0.07 0.10 0.12 0.14 0.18 0.21 0.20 0.17 0.15 0.13 0.11 0.09 0.08 0.07 0.07 0.07 0.06 0.04 0.03 0.02
0.06 0.09 0.13 0.13 0.18 0.20 0.18 0.16 0.15 0.14 0.12 0.10 0.07 0.07 0.06 0.05 0.03 0.02 0.02 0.03 0.03 0.04 0.05 0.07 0.09 0.09 0.10 0.11 0.12 0.14 0.13 0.12 0.09 0.08 0.07 0.07 0.06 0.06 0.05 0.04 0.03 0.01 0.01
0.03 0.04 0.09 0.11 0.17 0.19 0.19 0.15 0.15 0.12 0.08 0.07 0.06 0.04 0.04 0.04 0.03 0.02 0.02 0.02 0.03 0.03 0.04 0.04 0.05 0.06 0.07 0.08 0.08 0.08 0.08 0.07 0.07 0.06 0.07 0.07 0.06 0.05 0.04 0.03 0.02 0.01 0.01
0.02 0.03 0.05 0.08 0.10 0.11 0.13 0.13 0.12 0.10 0.07 0.04 0.04 0.03 0.03 0.03 0.02 0.02 0.02 0.03 0.03 0.04 0.04 0.03 0.03 0.03 0.04 0.06 0.07 0.06 0.06 0.05 0.06 0.05 0.05 0.06 0.05 0.05 0.03 0.02 0.02 0.02 0.01
0.01 0.01 0.02 0.04 0.05 0.05 0.04 0.04 0.04 0.03 0.02 0.02 0.02 0.01 0.01 0.00 0.01 0.01 0.01 0.01 0.03 0.04 0.04 0.04 0.04 0.04 0.05 0.06 0.06 0.06 0.05 0.05 0.06 0.06 0.05 0.05 0.05 0.03 0.02 0.02 0.02 0.02 0.01
0.00 0.00 0.00 0.00 0.01 0.01 0.01 0.01 0.01 0.01 0.01 0.01 0.00 0.00 0.00 0.00 0.00 0.00 0.00 0.00 0.00 0.01 0.01 0.01 0.02 0.03 0.04 0.05 0.04 0.05 0.04 0.03 0.03 0.04 0.04 0.05 0.04 0.04 0.03 0.03 0.02 0.02 0.01
0.00 0.00 0.00 0.00 0.00 0.00 0.00 0.00 0.00 0.00 0.00 0.00 0.00 0.00 0.00 0.00 0.00 0.00 0.00 0.00 0.00 0.00 0.00 0.00 0.00 0.01 0.02 0.03 0.03 0.03 0.02 0.02 0.03 0.03 0.04 0.05 0.04 0.04 0.04 0.03 0.02 0.02 0.02
0.00 0.00 0.00 0.00 0.00 0.00 0.00 0.00 0.00 0.00 0.00 0.00 0.00 0.00 0.00 0.00 0.00 0.00 0.00 0.00 0.00 0.00 0.00 0.00 0.00 0.00 0.00 0.01 0.02 0.01 0.01 0.01 0.02 0.02 0.03 0.04 0.04 0.04 0.04 0.04 0.04 0.03 0.02
0.00 0.00 0.00 0.00 0.00 0.00 0.00 0.00 0.00 0.00 0.00 0.00 0.00 0.00 0.00 0.00 0.00 0.00 0.00 0.00 0.00 0.00 0.00 0.00 0.00 0.00 0.00 0.00 0.01 0.01 0.00 0.01 0.01 0.02 0.02 0.03 0.04 0.03 0.04 0.04 0.04 0.04 0.03
0.00 0.00 0.00 0.00 0.00 0.00 0.00 0.00 0.00 0.00 0.00 0.00 0.00 0.00 0.00 0.00 0.00 0.00 0.00 0.00 0.00 0.00 0.00 0.00 0.00 0.00 0.00 0.00 0.01 0.01 0.01 0.01 0.02 0.02 0.01 0.02 0.03 0.02 0.04 0.06 0.05 0.05 0.04
0.00 0.00 0.00 0.00 0.00 0.00 0.00 0.00 0.00 0.00 0.00 0.00 0.00 0.00 0.00 0.00 0.00 0.00 0.00 0.00 0.00 0.00 0.00 0.00 0.00 0.00 0.00 0.00 0.01 0.01 0.01 0.01 0.02 0.02 0.01 0.02 0.04 0.04 0.05 0.06 0.07 0.06 0.06
0.00 0.00 0.00 0.00 0.00 0.00 0.00 0.00 0.00 0.00 0.00 0.00 0.00 0.00 0.00 0.00 0.00 0.00 0.00 0.00 0.00 0.00 0.00 0.00 0.00 0.00 0.00 0.01 0.01 0.01 0.01 0.01 0.01 0.01 0.01 0.02 0.03 0.05 0.05 0.05 0.05 0.06 0.05
0.00 0.00 0.00 0.00 0.00 0.00 0.00 0.00 0.00 0.00 0.00 0.00 0.00 0.00 0.00 0.00 0.00 0.00 0.00 0.00 0.00 0.00 0.00 0.00 0.00 0.00 0.00 0.00 0.01 0.01 0.01 0.01 0.01 0.01 0.01 0.02 0.03 0.04 0.04 0.04 0.04 0.07 0.06
0.00 0.00 0.00 0.00 0.00 0.00 0.00 0.00 0.00 0.00 0.00 0.00 0.00 0.00 0.00 0.00 0.00 0.00 0.00 0.00 0.00 0.00 0.00 0.00 0.00 0.00 0.00 0.00 0.00 0.01 0.01 0.01 0.01 0.01 0.01 0.01 0.01 0.01 0.01 0.02 0.02 0.03 0.03
0.00 0.00 0.00 0.00 0.00 0.00 0.00 0.00 0.00 0.00 0.00 0.00 0.00 0.00 0.00 0.00 0.00 0.00 0.00 0.00 0.00 0.00 0.00 0.00 0.00 0.00 0.00 0.00 0.00 0.00 0.00 0.01 0.01 0.01 0.01 0.00 0.00 0.00 0.01 0.01 0.01 0.00 0.00
MSLP
1020.28 1019.76 1019.26 1018.74 1018.15 1017.50 1016.78 1016.04 1015.32 1014.65 1014.06 1013.58 1013.20 1012.90 1012.67 1012.49 1012.35 1012.26 1012.23 1012.29 1012.46 1012.74 1013.14 1013.63 1014.18 1014.74 1015.27 1015.75 1016.15 1016.48 1016.75 1016.97 1017.17 1017.34 1017.49 1017.62 1017.70 1017.73 1017.69 1017.61 1017.50 1017.39 1017.31
1020.56 1020.01 1019.47 1018.90 1018.29 1017.61 1016.88 1016.14 1015.42 1014.77 1014.19 1013.71 1013.31 1012.96 1012.65 1012.37 1012.12 1011.91 1011.79 1011.77 1011.90 1012.17 1012.59 1013.12 1013.72 1014.34 1014.92 1015.44 1015.87 1016.23 1016.51 1016.76 1016.98 1017.20 1017.40 1017.58 1017.71 1017.78 1017.78 1017.71 1017.60 1017.47 1017.36
1020.64 1020.06 1019.48 1018.89 1018.25 1017.57 1016.86 1016.14 1015.47 1014.86 1014.33 1013.88 1013.47 1013.10 1012.73 1012.37 1012.02 1011.71 1011.49 1011.40 1011.46 1011.71 1012.12 1012.66 1013.27 1013.90 1014.50 1015.02 1015.46 1015.82 1016.12 1016.38 1016.64 1016.91 1017.17 1017.42 1017.62 1017.77 1017.82 1017.80 1017.70 1017.58 1017.45
1020.57 1019.96 1019.36 1018.75 1018.10 1017.42 1016.74 1016.07 1015.46 1014.91 1014.44 1014.03 1013.65 1013.28 1012.89 1012.47 1012.05 1011.67 1011.37 1011.21 1011.22 1011.41 1011.78 1012.29 1012.88 1013.48 1014.05 1014.55 1014.97 1015.31 1015.61 1015.89 1016.19 1016.50 1016.83 1017.16 1017.45 1017.67 1017.79 1017.82 1017.77 1017.66 1017.54
1020.43 1019.80 1019.18 1018.55 1017.89 1017.22 1016.56 1015.94 1015.38 1014.90 1014.49 1014.14 1013.81 1013.46 1013.07 1012.64 1012.19 1011.77 1011.42 1011.21 1011.16 1011.30 1011.62 1012.07 1012.60 1013.14 1013.65 1014.10 1014.47 1014.78 1015.07 1015.35 1015.67 1016.03 1016.42 1016.81 1017.17 1017.47 1017.66 1017.76 1017.75 1017.67 1017.55
1020.31 1019.65 1019.01 1018.35 1017.69 1017.02 1016.37 1015.77 1015.25 1014.83 1014.48 1014.18 1013.90 1013.59 1013.23 1012.83 1012.39 1011.97 1011.62 1011.38 1011.30 1011.39 1011.64 1012.02 1012.46 1012.92 1013.34 1013.71 1014.03 1014.30 1014.55 1014.83 1015.16 1015.54 1015.96 1016.40 1016.82 1017.16 1017.42 1017.56 1017.59 1017.55 1017.45
1020.25 1019.57 1018.91 1018.23 1017.54 1016.86 1016.21 1015.62 1015.12 1014.72 1014.41 1014.16 1013.92 1013.67 1013.37 1013.02 1012.63 1012.25 1011.92 1011.69 1011.59 1011.64 1011.83 1012.13 1012.48 1012.84 1013.17 1013.45 1013.69 1013.91 1014.12 1014.38 1014.70 1015.08 1015.51 1015.96 1016.39 1016.77 1017.05 1017.22 1017.30 1017.29 1017.22
1020.27 1019.59 1018.91 1018.21 1017.50 1016.80 1016.13 1015.53 1015.03 1014.64 1014.34 1014.11 1013.92 1013.71 1013.48 1013.19 1012.88 1012.56 1012.28 1012.08 1011.99 1012.02 1012.15 1012.37 1012.62 1012.89 1013.12 1013.32 1013.48 1013.64 1013.81 1014.03 1014.32 1014.68 1015.08 1015.51 1015.93 1016.30 1016.58 1016.78 1016.88 1016.91 1016.89
1020.38 1019.70 1019.02 1018.32 1017.60 1016.88 1016.19 1015.56 1015.05 1014.64 1014.33 1014.11 1013.94 1013.77 1013.59 1013.38 1013.14 1012.90 1012.68 1012.52 1012.45 1012.46 1012.55 1012.69 1012.86 1013.03 1013.18 1013.30 1013.39 1013.49 1013.62 1013.79 1014.04 1014.35 1014.71 1015.09 1015.47 1015.80 1016.08 1016.27 1016.40 1016.47 1016.50
1020.55 1019.90 1019.23 1018.55 1017.83 1017.10 1016.40 1015.77 1015.22 1014.79 1014.47 1014.23 1014.06 1013.91 1013.77 1013.61 1013.43 1013.25 1013.10 1012.98 1012.92 1012.92 1012.97 1013.06 1013.15 1013.24 1013.31 1013.35 1013.39 1013.44 1013.52 1013.65 1013.84 1014.10 1014.40 1014.72 1015.04 1015.33 1015.58 1015.77 1015.92 1016.04 1016.12
1020.74 1020.14 1019.53 1018.88 1018.19 1017.49 1016.80 1016.16 1015.61 1015.15 1014.80 1014.54 1014.35 1014.19 1014.06 1013.92 1013.78 1013.65 1013.53 1013.44 1013.39 1013.38 1013.39 1013.42 1013.46 1013.47 1013.48 1013.46 1013.45 1013.45 1013.49 1013.58 1013.73 1013.92 1014.16 1014.42 1014.68 1014.92 1015.14 1015.34 1015.51 1015.67 1015.83
1020.95 1020.42 1019.87 1019.28 1018.65 1018.00 1017.35 1016.74 1016.19 1015.73 1015.35 1015.06 1014.83 1014.65 1014.50 1014.36 1014.22 1014.10 1014.00 1013.92 1013.86 1013.83 1013.81 1013.79 1013.77 1013.73 1013.67 1013.61 1013.55 1013.52 1013.52 1013.57 1013.67 1013.81 1013.99 1014.19 1014.40 1014.61 1014.81 1015.01 1015.21 1015.42 1015.64
1021.14 1020.69 1020.22 1019.71 1019.16 1018.58 1018.00 1017.44 1016.93 1016.47 1016.09 1015.77 1015.50 1015.28 1015.09 1014.92 1014.76 1014.63 1014.52 1014.42 1014.35 1014.29 1014.24 1014.18 1014.11 1014.02 1013.91 1013.80 1013.70 1013.63 1013.59 1013.60 1013.66 1013.76 1013.90 1014.05 1014.22 1014.40 1014.59 1014.80 1015.03 1015.29 1015.57
1021.31 1020.93 1020.54 1020.11 1019.66 1019.18 1018.69 1018.20 1017.75 1017.33 1016.95 1016.61 1016.32 1016.05 1015.81 1015.59 1015.40 1015.24 1015.10 1014.99 1014.89 1014.81 1014.72 1014.62 1014.50 1014.36 1014.21 1014.05 1013.91 1013.79 1013.72 1013.69 1013.71 1013.77 1013.86 1013.98 1014.12 1014.29 1014.47 1014.69 1014.95 1015.24 1015.57
1021.44 1021.12 1020.80 1020.45 1020.09 1019.71 1019.32 1018.93 1018.55 1018.19 1017.84 1017.50 1017.19 1016.89 1016.61 1016.35 1016.12 1015.92 1015.75 1015.61 1015.50 1015.38 1015.27 1015.14 1014.98 1014.79 1014.59 1014.39 1014.19 1014.03 1013.90 1013.83 1013.81 1013.83 1013.89 1013.98 1014.10 1014.25 1014.44 1014.66 1014.93 1015.25 1015.59
1021.54 1021.25 1020.97 1020.68 1020.40 1020.11 1019.82 1019.54 1019.25 1018.96 1018.66 1018.35 1018.04 1017.73 1017.42 1017.13 1016.87 1016.65 1016.46 1016.30 1016.17 1016.04 1015.91 1015.74 1015.55 1015.32 1015.07 1014.81 1014.55 1014.33 1014.15 1014.02 1013.95 1013.93 1013.96 1014.02 1014.13 1014.27 1014.45 1014.68 1014.95 1015.27 1015.62
1021.57 1021.29 1021.03 1020.78 1020.56 1020.35 1020.16 1019.98 1019.79 1019.58 1019.35 1019.09 1018.81 1018.50 1018.20 1017.90 1017.63 1017.40 1017.21 1017.05 1016.91 1016.77 1016.62 1016.43 1016.20 1015.93 1015.62 1015.30 1014.98 1014.69 1014.45 1014.26 1014.14 1014.08 1014.07 1014.11 1014.20 1014.33 1014.50 1014.72 1014.99 1015.29 1015.63
1021.54 1021.25 1020.99 1020.76 1020.57 1020.43 1020.32 1020.23 1020.14 1020.02 1019.88 1019.68 1019.45 1019.18 1018.90 1018.62 1018.37 1018.15 1017.96 1017.81 1017.67 1017.53 1017.37 1017.16 1016.90 1016.58 1016.22 1015.84 1015.46 1015.10 1014.79 1014.54 1014.37 1014.26 1014.22 1014.23 1014.30 1014.42 1014.58 1014.79 1015.04 1015.33 1015.64
1021.46 1021.14 1020.86 1020.64 1020.48 1020.39 1020.34 1020.34 1020.33 1020.31 1020.25 1020.14 1019.97 1019.76 1019.53 1019.29 1019.06 1018.87 1018.70 1018.56 1018.43 1018.29 1018.11 1017.88 1017.58 1017.22 1016.81 1016.38 1015.93 1015.52 1015.15 1014.85 1014.63 1014.48 1014.41 1014.41 1014.46 1014.56 1014.71 1014.90 1015.13 1015.39 1015.68
1021.33 1020.99 1020.70 1020.48 1020.34 1020.28 1020.30 1020.36 1020.43 1020.49 1020.51 1020.48 1020.39 1020.25 1020.08 1019.89 1019.71 1019.54 1019.40 1019.27 1019.14 1018.99 1018.80 1018.54 1018.21 1017.81 1017.36 1016.88 1016.39 1015.93 1015.52 1015.18 1014.93 1014.76 1014.67 1014.65 1014.69 1014.78 1014.91 1015.09 1015.30 1015.54 1015.81
1021.19 1020.85 1020.55 1020.34 1020.22 1020.19 1020.25 1020.36 1020.50 1020.63 1020.73 1020.77 1020.75 1020.68 1020.57 1020.43 1020.29 1020.16 1020.03 1019.91 1019.78 1019.61 1019.40 1019.11 1018.75 1018.33 1017.85 1017.33 1016.82 1016.34 1015.91 1015.56 1015.29 1015.12 1015.02 1014.99 1015.02 1015.10 1015.23 1015.39 1015.58 1015.80 1016.06
1021.07 1020.74 1020.47 1020.27 1020.17 1020.17 1020.26 1020.41 1020.59 1020.77 1020.92 1021.03 1021.07 1021.06 1021.00 1020.91 1020.81 1020.70 1020.58 1020.46 1020.31 1020.13 1019.89 1019.58 1019.20 1018.76 1018.27 1017.75 1017.24 1016.76 1016.34 1016.00 1015.75 1015.58 1015.49 1015.46 1015.49 1015.56 1015.68 1015.82 1016.00 1016.21 1016.44
1021.00 1020.71 1020.46 1020.29 1020.21 1020.23 1020.34 1020.50 1020.71 1020.92 1021.11 1021.25 1021.34 1021.38 1021.37 1021.32 1021.24 1021.15 1021.04 1020.91 1020.75 1020.55 1020.29 1019.97 1019.58 1019.13 1018.65 1018.16 1017.67 1017.23 1016.85 1016.54 1016.32 1016.17 1016.10 1016.08 1016.11 1016.18 1016.27 1016.40 1016.56 1016.75 1016.97
1020.98 1020.74 1020.54 1020.40 1020.34 1020.37 1020.47 1020.64 1020.85 1021.06 1021.26 1021.43 1021.55 1021.62 1021.64 1021.62 1021.57 1021.50 1021.40 1021.26 1021.10 1020.88 1020.62 1020.29 1019.91 1019.49 1019.04 1018.59 1018.17 1017.78 1017.45 1017.20 1017.02 1016.91 1016.86 1016.85 1016.88 1016.93 1017.01 1017.12 1017.25 1017.41 1017.61
1021.02 1020.83 1020.67 1020.56 1020.51 1020.54 1020.63 1020.77 1020.96 1021.15 1021.34 1021.51 1021.64 1021.74 1021.78 1021.79 1021.77 1021.72 1021.63 1021.51 1021.34 1021.14 1020.88 1020.58 1020.23 1019.86 1019.47 1019.09 1018.74 1018.42 1018.17 1017.98 1017.86 1017.78 1017.75 1017.75 1017.78 1017.82 1017.87 1017.94 1018.04 1018.17 1018.34
1021.07 1020.94 1020.81 1020.72 1020.67 1020.67 1020.74 1020.84 1020.98 1021.15 1021.31 1021.46 1021.59 1021.70 1021.77 1021.81 1021.82 1021.80 1021.74 1021.64 1021.50 1021.33 1021.11 1020.85 1020.56 1020.25 1019.94 1019.65 1019.38 1019.16 1018.99 1018.86 1018.79 1018.75 1018.74 1018.74 1018.76 1018.77 1018.79 1018.83 1018.89 1018.98 1019.11
Thickness
5689 5696 5701 5706 5710 5715 5719 5724 5730 5734 5739 5742 5744 5747 5749 5751 5753 5753 5753 5752 5751 5750 5748 5746 5743 5740 5737 5736 5735 5733 5730 5729 5729 5726 5724 5725 5728 5729 5731 5732 5734 5734 5734
5677 5682 5687 5691 5695 5699 5705 5711 5716 5722 5727 5731 5736 5740 5744 5746 5749 5751 5750 5750 5749 5747 5745 5743 5740 5737 5734 5731 5730 5728 5725 5724 5724 5721 5716 5714 5716 5722 5726 5727 5729 5730 5731
5662 5668 5672 5676 5681 5686 5692 5698 5703 5709 5716 5722 5727 5733 5737 5739 5741 5744 5746 5747 5746 5744 5743 5740 5737 5734 5731 5727 5725 5724 5722 5718 5718 5720 5716 5709 5706 5712 5718 5721 5723 5725 5725
5651 5655 5660 5664 5668 5673 5680 5685 5690 5697 5703 5711 5717 5722 5726 5729 5733 5737 5739 5740 5740 5740 5740 5738 5735 5731 5728 5725 5723 5721 5718 5716 5713 5713 5714 5714 5713 5707 5708 5713 5716 5718 5720
5639 5643 5648 5652 5657 5663 5668 5674 5678 5685 5691 5699 5706 5712 5717 5722 5726 5730 5732 5733 5733 5734 5733 5733 5730 5728 5725 5723 5720 5718 5715 5713 5710 5709 5708 5707 5706 5707 5703 5702 5707 5710 5714
5630 5634 5639 5643 5647 5652 5657 5662 5667 5673 5680 5688 5695 5701 5707 5713 5717 5721 5723 5724 5725 5725 5726 5725 5724 5722 5720 5718 5716 5715 5711 5709 5707 5706 5705 5704 5702 5700 5699 5697 5698 5700 5705
5622 5626 5630 5634 5637 5642 5647 5652 5657 5663 5671 5677 5684 5690 5696 5703 5708 5711 5714 5715 5716 5716 5717 5717 5716 5715 5714 5713 5711 5709 5707 5704 5702 5702 5701 5700 5700 5699 5696 5693 5692 5692 5696
5617 5620 5623 5627 5630 5634 5639 5644 5650 5655 5662 5668 5674 5680 5686 5691 5697 5701 5704 5706 5707 5708 5709 5709 5708 5708 5708 5706 5705 5703 5701 5699 5698 5697 5696 5695 5694 5694 5692 5690 5686 5684 5686
5614 5616 5620 5622 5625 5629 5634 5639 5643 5648 5654 5660 5666 5671 5676 5680 5686 5690 5693 5695 5698 5700 5700 5700 5699 5699 5699 5698 5697 5696 5694 5693 5692 5691 5690 5689 5689 5689 5687 5686 5684 5680 5677
5612 5614 5617 5619 5623 5627 5631 5635 5639 5643 5647 5652 5657 5662 5666 5671 5675 5679 5681 5685 5687 5689 5690 5690 5689 5689 5690 5689 5688 5688 5687 5686 5684 5684 5683 5682 5682 5682 5681 5680 5679 5678 5675
5608 5611 5614 5617 5621 5625 5628 5631 5635 5638 5642 5646 5650 5654 5658 5662 5665 5668 5671 5674 5677 5678 5679 5679 5679 5679 5679 5679 5679 5678 5678 5677 5676 5675 5675 5675 5675 5674 5674 5674 5673 5671 5670
5609 5611 5613 5616 5619 5622 5625 5628 5631 5634 5637 5641 5644 5648 5651 5654 5657 5659 5662 5665 5667 5668 5669 5669 5670 5670 5670 5670 5670 5669 5669 5668 5668 5667 5668 5668 5668 5668 5667 5667 5666 5665 5665
5611 5613 5615 5616 5618 5620 5622 5625 5628 5631 5634 5637 5640 5643 5645 5648 5650 5652 5655 5656 5657 5659 5659 5660 5660 5660 5660 5661 5661 5661 5661 5661 5661 5661 5661 5661 5661 5660 5660 5660 5660 5660 5660
5614 5615 5616 5618 5619 5620 5622 5624 5626 5629 5632 5634 5636 5638 5639 5641 5643 5645 5647 5648 5650 5650 5651 5651 5652 5653 5653 5653 5654 5654 5654 5654 5654 5655 5655 5655 5655 5655 5655 5654 5654 5654 5653
5619 5619 5619 5620 5621 5622 5623 5624 5626 5628 5630 5632 5633 5633 5635 5637 5639 5639 5640 5641 5642 5643 5643 5644 5645 5646 5647 5647 5647 5647 5648 5647 5647 5647 5648 5649 5650 5651 5651 5650 5649 5649 5647
5622 5623 5624 5624 5623 5623 5624 5625 5625 5627 5628 5629 5629 5630 5631 5633 5633 5633 5634 5634 5634 5635 5635 5635 5636 5638 5640 5641 5642 5641 5640 5640 5640 5640 5641 5643 5644 5645 5645 5646 5646 5645 5644
5627 5627 5628 5627 5627 5627 5627 5626 5626 5627 5628 5627 5627 5628 5628 5629 5628 5629 5628 5628 5628 5628 5628 5627 5628 5629 5631 5634 5634 5634 5633 5633 5632 5632 5633 5634 5636 5637 5637 5638 5639 5639 5640
5633 5633 5633 5633 5633 5632 5631 5630 5630 5629 5628 5627 5626 5626 5626 5626 5625 5625 5624 5623 5623 5622 5621 5620 5620 5621 5623 5625 5626 5626 5625 5624 5624 5624 5625 5626 5627 5629 5630 5630 5630 5630 5632
5640 5640 5639 5639 5638 5636 5635 5634 5632 5630 5629 5627 5626 5625 5625 5624 5623 5622 5620 5619 5618 5617 5615 5614 5613 5614 5615 5617 5618 5618 5617 5616 5615 5615 5616 5618 5620 5623 5624 5624 5623 5623 5623
5647 5646 5646 5645 5643 5642 5640 5638 5635 5633 5630 5628 5627 5625 5624 5623 5621 5619 5617 5616 5614 5612 5611 5609 5608 5607 5607 5609 5611 5610 5609 5608 5607 5607 5609 5611 5613 5616 5617 5617 5617 5617 5617
5653 5652 5651 5649 5648 5647 5645 5641 5639 5636 5633 5631 5629 5627 5625 5623 5620 5618 5616 5614 5612 5609 5607 5605 5604 5602 5601 5602 5604 5604 5603 5602 5601 5601 5601 5604 5607 5609 5611 5612 5612 5612 5613
5657 5656 5654 5653 5652 5651 5649 5645 5642 5640 5637 5634 5631 5627 5625 5624 5620 5617 5614 5612 5609 5607 5604 5602 5601 5599 5597 5598 5598 5599 5599 5598 5596 5596 5596 5598 5601 5603 5605 5606 5607 5608 5608
5660 5659 5658 5657 5656 5655 5653 5649 5647 5644 5640 5636 5632 5628 5625 5622 5619 5616 5613 5610 5608 5605 5602 5600 5597 5596 5595 5595 5595 5595 5595 5594 5593 5593 5594 5595 5596 5598 5599 5600 5602 5602 5603
5663 5662 5661 5659 5658 5658 5656 5654 5651 5647 5643 5638 5633 5629 5625 5622 5619 5616 5613 5610 5607 5603 5601 5598 5596 5594 5593 5593 5593 5593 5592 5592 5591 5590 5591 5592 5593 5594 5594 5595 5596 5596 5597
5665 5664 5663 5662 5661 5660 5659 5657 5654 5650 5645 5640 5636 5631 5627 5623 5620 5616 5613 5610 5607 5604 5601 5598 5596 5594 5593 5592 5593 5592 5592 5591 5591 5590 5590 5590 5590 5590 5590 5590 5590 5591 5592
5668 5667 5666 5665 5663 5663 5661 5660 5657 5653 5648 5643 5639 5634 5629 5625 5622 5618 5615 5613 5610 5608 5605 5603 5600 5597 5596 5595 5594 5594 5593 5593 5592 5591 5588 5586 5585 5585 5585 5585 5586 5586 5587